Regional Weather Roundup
Issued by NWS

Home | Current Version | Previous Version | Graphics & Text | Print | Product List | Glossary Off
Versions: 1 2 3 4 5 6 7 8 9 10 11 12 13 14 15 16 17 18 19 20 21 22 23 24 25 26 27 28 29 30 31 32 33 34 35 36 37 38 39 40 41 42 43 44 45 46 47 48 49 50

023
ASUS43 KDMX 201001
RWRIA

WEATHER ROUNDUP FOR IOWA
NATIONAL WEATHER SERVICE DES MOINES IA
500 AM CDT SUN MAY 20 2018

NOTE: "FAIR" INDICATES FEW OR NO CLOUDS BELOW 12,000 FEET WITH NO
SIGNIFICANT WEATHER AND/OR OBSTRUCTIONS TO VISIBILITY.

* - THESE STATIONS ARE NOT NWS STATIONS...THUS NOT UNDER NWS
QUALITY CONTROL.  THEY ALSO DO NOT REPORT WEATHER SUCH
AS PRECIPITATION OR FOG.

IAZ001>003-012>014-020>022-031>034-043>046-201100-
   NORTHWEST IOWA

CITY           SKY/WX    TMP DP  RH WIND       PRES   REMARKS
CARROLL *      CLOUDY   N/A N/A N/A NE13      30.06F
CHEROKEE *     CLOUDY    51  50  97 NE7       30.11R
DENISON *      CLOUDY    54  52  94 NE7       30.10R
LE MARS *      CLOUDY    52  50  93 N9        30.11R
ORANGE CITY *  CLOUDY    52  48  87 NE5       30.12R
SHELDON *      CLOUDY    50  48  93 NE12      30.10R
SIOUX CITY     CLOUDY    53  49  86 NE12      30.10S
SPENCER        CLOUDY    51  45  79 NE14      30.11S
STORM LAKE *   CLOUDY    50  48  93 NE17      30.09R
$$

IAZ055>058-069>071-079>083-090>094-201100-
   SOUTHWEST IOWA

CITY           SKY/WX    TMP DP  RH WIND       PRES   REMARKS
ATLANTIC *     MOCLDY    55  55 100 NE9       30.05R
AUDUBON *      MOCLDY    54  50  87 NE6       30.07R
CLARINDA *       N/A     57  55  94 NE7       30.05R
COUNCIL BLFS * CLOUDY    57  57 100 NE8G14    30.06R
CRESTON *      CLEAR     57  55  94 NE10      30.05R
HARLAN  *      MOCLDY    55  55 100 NE9G18    30.09R
LAMONI         CLOUDY    58  56  93 N5        30.03R FOG
RED OAK *      CLOUDY    57  55  94 NE8       30.04R
SHENANDOAH *   CLOUDY    57  55  94 NE10      30.04S
$$

IAZ047>049-059>061-072>074-084-201100-
   CENTRAL IOWA

CITY           SKY/WX    TMP DP  RH WIND       PRES   REMARKS
AMES           CLOUDY    56  49  77 N12       30.05R
ANKENY *       CLOUDY    57  52  82 N9        30.05R
BOONE *        CLOUDY    54  48  82 N14       30.05R
CHARITON *     PTCLDY    59  57  94 N8        30.02R
DES MOINES     CLOUDY    60  52  74 N6        30.04R
GRINNELL*      CLOUDY    59  54  84 N12       30.04R
KNOXVILLE *    CLOUDY    61  57  88 N7G15     30.02R
MARSHALLTOWN   CLOUDY    55  51  86 N9        30.05R
NEWTON *       CLOUDY    59  54  82 N10       30.04R
PELLA *        CLOUDY    60  56  86 N7        30.04R
PERRY *        CLOUDY    56  51  84 NE9       30.05R
$$

IAZ004>006-015-016-023>025-035-036-201100-
   NORTH CENTRAL IOWA

CITY           SKY/WX    TMP DP  RH WIND       PRES   REMARKS
ALGONA *       CLOUDY    48  45  87 NE16      30.09R
CLARION *      CLOUDY    52  45  76 NE14      30.08R
ESTHERVILLE    CLOUDY    48  44  86 NE15      30.10R
FORT DODGE *   CLOUDY    51  48  89 N7        30.09R
MASON CITY     CLOUDY    50  43  77 NE14      30.09F
FOREST CITY *  DRIZZLE   50  45  81 NE10G16   30.09F
WEBSTER CITY * CLOUDY    52  46  82 N12       30.06R
IOWA FALLS *   CLOUDY    53  48  83 NE12G17   30.07R
$$

IAZ007>011-017>019-026>030-037>042-050>054-066-201100-
   NORTHEAST IOWA

CITY           SKY/WX    TMP DP  RH WIND       PRES   REMARKS
CEDAR RAPIDS   CLOUDY    65  63  93 E14       29.99S
CHARLES CITY * CLOUDY    50  45  81 NE13      30.09R
CLINTON *      CLOUDY    65  60  84 E15       30.01R
DECORAH *      CLOUDY    50  46  87 N9        30.08R
DUBUQUE        CLOUDY    58  56  93 N10       30.02S
MONTICELLO *   LGT RAIN  61  59  94 NE9G15    30.02R
OELWEIN *      CLOUDY    54  50  87 NE12G18   30.06R
WATERLOO       CLOUDY    53  49  86 N13       30.05R
$$

IAZ064-065-067-068-078-201100-
   EAST CENTRAL IOWA

CITY           SKY/WX    TMP DP  RH WIND       PRES   REMARKS
DAVENPORT      MOCLDY    64  59  83 E12       30.02R
IOWA CITY      FAIR      65  62  90 NE7       30.00R
MUSCATINE *    FAIR      64  63  94 NE7       29.96F
QUAD CITIES    CLOUDY    66  61  84 E12       30.00R
$$

IAZ062-063-075>077-085>089-095>099-201100-
   SOUTHEAST IOWA

CITY           SKY/WX    TMP DP  RH WIND       PRES   REMARKS
BURLINGTON     CLOUDY    64  61  90 S3        29.97S
FAIRFIELD *    CLOUDY    63  63 100 SW3       29.99R FOG
FORT MADISON * CLOUDY    64  64 100 S6        29.99R
KEOKUK *       MOCLDY    64  63  94 SW8       29.99R
OSKALOOSA *    FAIR      60  60  98 NW8       30.01R FOG
CENTERVILLE *    N/A     61  61 100 CALM      30.03R
OTTUMWA        MOCLDY    61  61 100 NW6       30.00R FOG
WASHINGTON *   CLOUDY    63  63 100 N5        29.99R FOG
$$

ABBREVIATIONS USED IN REMARKS
   TC - TEMPERATURES IN CELSIUS
  WCI - WIND CHILL INDEX
   HX - HEAT INDEX
  VSB - VISIBILITY
$$





USA.gov is the U.S. government's official web portal to all federal, state and local government web resources and services.